Flag for Belgium Weather past 2 weeks in Brussels, Belgium

Now
51 °F

Cool.


Feels Like: 49 °F
Forecast: 38 / 59 °F
Wind: 7 mph from North

Location: Uccle


UV Index: 0 (Low)

Visibility: N/A


Pressure: 30.04 "Hg

Humidity: 51%

Dew point: 33 °F

Location of BrusselsLocation

Historic Weather in Brussels

°F

Brussels temperature yesterday

Maximum temperature yesterday: 64 °F (at 5:00 PM)
Minimum temperature yesterday: 45 °F (at 6:00 AM)
Average temperature yesterday: 53 °F

Past Weeks' High & Low Weather Summary

 TemperatureHumidityPressure
High71 °F (Apr 7, 3:00 PM)93% (Apr 9, 7:00 AM)30.44 "Hg (Apr 9, 7:00 AM)
Low36 °F (Apr 16, 7:00 AM)27% (Apr 17, 4:00 PM)29.61 "Hg (Apr 3, 4:00 PM)
Average52 °F67%30.10 "Hg
* Reported Apr 3 4:00 PM — Apr 18 4:00 PM, Brussels, Weather by CustomWeather, © 2014

Note: Actual official high and low records may vary slightly from our data, if they occured in-between our weather recording intervals... More about our weather records

Advertising

Historic Weather Conditions — Data for Previous 24 hours

 ConditionsComfort  
Time TempWeatherWind HumidityBarometerVisibility
4:00 PM
Apr 18
51 °FCool.7 mph51%30.04 "HgN/A
3:00 PM51 °FCool.7 mph53%30.05 "HgN/A
2:00 PM53 °FCool.6 mph53%30.03 "HgN/A
1:00 PM50 °FCool.6 mph53%30.04 "HgN/A
12:00 PM48 °FCool.7 mph63%30.04 "HgN/A
11:00 AM48 °FCool.5 mph63%30.04 "HgN/A
10:00 AM46 °FCool.6 mph72%30.04 "HgN/A
9:00 AM46 °FCool.6 mph77%30.02 "HgN/A
8:00 AM46 °FCool.3 mph79%30.01 "HgN/A
7:00 AM45 °FCool.3 mph83%30.00 "HgN/A
6:00 AM46 °FCool.5 mph84%29.99 "HgN/A
5:00 AM47 °FCool.5 mph85%29.98 "HgN/A
4:00 AM48 °FCool.3 mph86%29.98 "HgN/A
3:00 AM48 °FCool.2 mph85%29.98 "HgN/A
2:00 AM48 °FCool.3 mph87%30.00 "HgN/A
6:00 PM
Apr 17
62 °FMild.5 mph32%30.02 "HgN/A
5:00 PM64 °FMild.6 mph28%30.04 "HgN/A
Weather by CustomWeather, © 2014

See weather overview